| time (UTC) | temp F | wind direction | speed knots | gust knots | rain 1hr in | rain 24hr in | rain mn in | humidity % | barometer mb |
| 20260510231822 | 55 | 240 | 2.6 | 2.6 | 0.00 | 0.08 | 0.08 | 47 | 1017.3 |
| 20260510231320 | 56 | 168 | 0.9 | 0.9 | 0.00 | 0.08 | 0.08 | 48 | 1017.3 |
| 20260510230816 | 57 | 340 | 2.6 | 4.3 | 0.00 | 0.08 | 0.08 | 49 | 1017.0 |
| 20260510230311 | 57 | 94 | 2.6 | 2.6 | 0.00 | 0.08 | 0.08 | 49 | 1017.0 |
| 20260510225808 | 57 | 67 | 1.7 | 1.7 | 0.00 | 0.08 | 0.08 | 51 | 1016.9 |
| 20260510225306 | 57 | 325 | 2.6 | 2.6 | 0.00 | 0.08 | 0.08 | 49 | 1016.9 |
| 20260510224800 | 58 | 283 | 2.6 | 4.3 | 0.00 | 0.08 | 0.08 | 49 | 1016.8 |
| 20260510224256 | 58 | 256 | 1.7 | 1.7 | 0.00 | 0.08 | 0.08 | 49 | 1016.5 |
| 20260510223754 | 58 | 294 | 4.3 | 6.1 | 0.00 | 0.08 | 0.08 | 49 | 1016.5 |
| 20260510223251 | 59 | 308 | 5.2 | 8.7 | 0.00 | 0.08 | 0.08 | 48 | 1016.8 |
| 20260510222748 | 59 | 221 | 0.9 | 0.9 | 0.00 | 0.08 | 0.08 | 50 | 1016.2 |
| 20260510222245 | 59 | 312 | 4.3 | 5.2 | 0.00 | 0.08 | 0.08 | 49 | 1016.2 |
| 20260510221740 | 59 | 304 | 1.7 | 1.7 | 0.00 | 0.08 | 0.08 | 48 | 1016.0 |
| 20260510221237 | 60 | 344 | 2.6 | 2.6 | 0.00 | 0.08 | 0.08 | 49 | 1016.0 |
| 20260510220734 | 60 | 217 | 3.5 | 5.2 | 0.00 | 0.08 | 0.08 | 48 | 1015.8 |
| 20260510220229 | 61 | 330 | 1.7 | 2.6 | 0.00 | 0.08 | 0.08 | 49 | 1015.9 |
| 20260510215727 | 61 | 333 | 1.7 | 2.6 | 0.00 | 0.08 | 0.08 | 47 | 1015.5 |
| 20260510215224 | 60 | 263 | 2.6 | 4.3 | 0.00 | 0.08 | 0.08 | 48 | 1015.8 |
| 20260510214721 | 61 | 349 | 4.3 | 7.0 | 0.00 | 0.08 | 0.08 | 48 | 1015.4 |
| 20260510214218 | 62 | 300 | 6.1 | 7.8 | 0.00 | 0.08 | 0.08 | 46 | 1015.7 |
| 20260510213715 | 61 | 118 | 0.9 | 0.9 | 0.00 | 0.08 | 0.08 | 46 | 1015.3 |
| 20260510213212 | 60 | 11 | 6.1 | 7.8 | 0.00 | 0.08 | 0.08 | 47 | 1015.2 |
| 20260510212707 | 60 | 359 | 7.8 | 8.7 | 0.00 | 0.08 | 0.08 | 46 | 1015.5 |
| 20260510212205 | 61 | 309 | 2.6 | 2.6 | 0.00 | 0.08 | 0.08 | 46 | 1015.3 |
| 20260510211702 | 61 | 357 | 4.3 | 5.2 | 0.00 | 0.08 | 0.08 | 45 | 1015.2 |
| 20260510211156 | 62 | 298 | 3.5 | 5.2 | 0.00 | 0.08 | 0.08 | 44 | 1015.1 |
| 20260510210654 | 64 | 267 | 6.1 | 9.6 | 0.00 | 0.08 | 0.08 | 44 | 1015.0 |
| 20260510210149 | 64 | 324 | 5.2 | 8.7 | 0.00 | 0.08 | 0.08 | 42 | 1015.1 |
| 20260510205648 | 63 | 29 | 5.2 | 7.8 | 0.00 | 0.08 | 0.08 | 43 | 1014.9 |
| 20260510205144 | 64 | 304 | 3.5 | 4.3 | 0.00 | 0.08 | 0.08 | 44 | 1014.8 |
| 20260510204640 | 63 | 300 | 6.1 | 7.0 | 0.00 | 0.08 | 0.08 | 44 | 1014.5 |
| 20260510204137 | 61 | 11 | 4.3 | 5.2 | 0.00 | 0.08 | 0.08 | 47 | 1014.5 |
| 20260510203634 | 61 | 22 | 5.2 | 7.0 | 0.00 | 0.08 | 0.08 | 46 | 1014.5 |
| 20260510203130 | 61 | 28 | 5.2 | 7.0 | 0.00 | 0.08 | 0.08 | 47 | 1014.5 |
| 20260510202625 | 63 | 112 | 4.3 | 6.1 | 0.00 | 0.08 | 0.08 | 44 | 1014.4 |
| 20260510202120 | 64 | 263 | 1.7 | 1.7 | 0.00 | 0.08 | 0.08 | 46 | 1014.4 |
| 20260510201618 | 64 | 321 | 2.6 | 4.3 | 0.00 | 0.08 | 0.08 | 45 | 1014.3 |
| 20260510201115 | 63 | 160 | 2.6 | 4.3 | 0.00 | 0.08 | 0.08 | 45 | 1014.3 |
| 20260510200610 | 61 | 11 | 4.3 | 4.3 | 0.00 | 0.08 | 0.08 | 48 | 1014.5 |
| 20260510200108 | 62 | 220 | 1.7 | 1.7 | 0.00 | 0.08 | 0.08 | 45 | 1014.4 |
| 20260510195606 | 62 | 2 | 2.6 | 4.3 | 0.00 | 0.08 | 0.08 | 47 | 1014.6 |
| 20260510195056 | 62 | 342 | 2.6 | 4.3 | 0.00 | 0.08 | 0.08 | 46 | 1014.5 |
| 20260510194551 | 62 | 248 | 3.5 | 5.2 | 0.00 | 0.08 | 0.08 | 46 | 1014.4 |
| 20260510194048 | 62 | 21 | 3.5 | 5.2 | 0.00 | 0.08 | 0.08 | 48 | 1014.5 |
| 20260510193548 | 62 | 16 | 4.3 | 5.2 | 0.00 | 0.08 | 0.08 | 46 | 1014.5 |
| 20260510193044 | 63 | 348 | 4.3 | 6.1 | 0.00 | 0.08 | 0.08 | 44 | 1014.6 |
| 20260510192543 | 62 | 199 | 1.7 | 1.7 | 0.00 | 0.08 | 0.08 | 44 | 1014.5 |
| 20260510192040 | 64 | 297 | 2.6 | 4.3 | 0.00 | 0.08 | 0.08 | 42 | 1014.5 |
| 20260510191536 | 64 | 262 | 4.3 | 6.1 | 0.00 | 0.08 | 0.08 | 40 | 1014.6 |
| 20260510191033 | 62 | 256 | 3.5 | 4.3 | 0.00 | 0.08 | 0.08 | 44 | 1014.6 |
| 20260510190531 | 64 | 208 | 2.6 | 5.2 | 0.00 | 0.08 | 0.08 | 43 | 1014.4 |
| 20260510190028 | 64 | 227 | 3.5 | 4.3 | 0.00 | 0.08 | 0.08 | 42 | 1014.4 |
| 20260510185524 | 63 | 319 | 4.3 | 6.1 | 0.00 | 0.08 | 0.08 | 43 | 1014.8 |
| 20260510185022 | 63 | 268 | 9.6 | 12.2 | 0.00 | 0.08 | 0.08 | 42 | 1014.6 |
| 20260510184519 | 63 | 347 | 2.6 | 4.3 | 0.00 | 0.08 | 0.08 | 44 | 1014.8 |
| 20260510184014 | 63 | 281 | 2.6 | 4.3 | 0.00 | 0.08 | 0.08 | 43 | 1014.6 |
| 20260510183510 | 62 | 356 | 2.6 | 2.6 | 0.00 | 0.08 | 0.08 | 42 | 1014.6 |
| 20260510183006 | 62 | 315 | 3.5 | 4.3 | 0.00 | 0.08 | 0.08 | 44 | 1014.5 |
| 20260510182503 | 61 | 250 | 3.5 | 5.2 | 0.00 | 0.08 | 0.08 | 43 | 1014.6 |
| 20260510181957 | 64 | 293 | 3.5 | 4.3 | 0.00 | 0.08 | 0.08 | 41 | 1014.5 |
| 20260510181456 | 62 | 34 | 1.7 | 1.7 | 0.00 | 0.08 | 0.08 | 46 | 1014.4 |
| 20260510180951 | 62 | 275 | 3.5 | 5.2 | 0.00 | 0.08 | 0.08 | 43 | 1014.7 |
| 20260510180449 | 62 | 30 | 2.6 | 4.3 | 0.00 | 0.08 | 0.08 | 44 | 1014.7 |
| 20260510175945 | 62 | 255 | 2.6 | 4.3 | 0.00 | 0.08 | 0.08 | 43 | 1014.7 |
| 20260510175441 | 61 | 201 | 3.5 | 5.2 | 0.00 | 0.08 | 0.08 | 44 | 1014.7 |
| 20260510174937 | 61 | 11 | 3.5 | 4.3 | 0.00 | 0.08 | 0.08 | 45 | 1014.6 |
| 20260510174436 | 60 | 232 | 3.5 | 4.3 | 0.00 | 0.08 | 0.08 | 43 | 1014.8 |
| 20260510173932 | 61 | 283 | 6.1 | 7.0 | 0.00 | 0.08 | 0.08 | 42 | 1014.8 |
| 20260510173427 | 61 | 282 | 6.1 | 7.8 | 0.00 | 0.08 | 0.08 | 42 | 1014.9 |
| 20260510172924 | 61 | 278 | 3.5 | 4.3 | 0.00 | 0.08 | 0.08 | 41 | 1014.8 |
| 20260510172420 | 60 | 229 | 1.7 | 1.7 | 0.00 | 0.08 | 0.08 | 42 | 1014.8 |
| 20260510171916 | 60 | 256 | 4.3 | 5.2 | 0.00 | 0.08 | 0.08 | 43 | 1014.9 |
| 20260510171414 | 59 | 223 | 4.3 | 6.1 | 0.00 | 0.08 | 0.08 | 42 | 1015.0 |
| 20260510170910 | 60 | 268 | 1.7 | 4.3 | 0.00 | 0.08 | 0.08 | 46 | 1015.0 |
| 20260510170407 | 59 | 119 | 2.6 | 4.3 | 0.00 | 0.08 | 0.08 | 44 | 1014.9 |
| 20260510165902 | 60 | 285 | 2.6 | 5.2 | 0.00 | 0.08 | 0.08 | 43 | 1014.8 |
| 20260510165359 | 58 | 217 | 1.7 | 1.7 | 0.00 | 0.08 | 0.08 | 51 | 1015.1 |
| 20260510164856 | 58 | 342 | 2.6 | 2.6 | 0.00 | 0.08 | 0.08 | 53 | 1015.1 |
| 20260510164353 | 59 | 97 | 0.0 | 0.9 | 0.00 | 0.08 | 0.08 | 57 | 1015.1 |
| 20260510163852 | 59 | 232 | 3.5 | 4.3 | 0.00 | 0.08 | 0.08 | 52 | 1014.9 |
| 20260510163349 | 57 | 42 | 2.6 | 4.3 | 0.00 | 0.08 | 0.08 | 57 | 1014.9 |
| 20260510162844 | 57 | 274 | 1.7 | 1.7 | 0.00 | 0.08 | 0.08 | 58 | 1015.0 |
| 20260510162341 | 56 | 192 | 0.9 | 0.9 | 0.00 | 0.08 | 0.08 | 61 | 1015.1 |
| 20260510161837 | 55 | 274 | 2.6 | 2.6 | 0.00 | 0.08 | 0.08 | 62 | 1015.1 |
| 20260510161333 | 56 | 133 | 0.0 | 0.9 | 0.00 | 0.08 | 0.08 | 61 | 1015.2 |
| 20260510160830 | 55 | 99 | 1.7 | 1.7 | 0.00 | 0.08 | 0.08 | 63 | 1015.3 |
| 20260510160327 | 55 | 232 | 1.7 | 1.7 | 0.00 | 0.08 | 0.08 | 64 | 1015.2 |
| 20260510155821 | 55 | 146 | 1.7 | 1.7 | 0.00 | 0.08 | 0.08 | 64 | 1015.1 |
| 20260510155318 | 55 | 192 | 1.7 | 1.7 | 0.00 | 0.08 | 0.08 | 65 | 1015.2 |
| 20260510154814 | 54 | 228 | 1.7 | 1.7 | 0.00 | 0.08 | 0.08 | 65 | 1015.0 |
| 20260510154310 | 54 | 8 | 2.6 | 2.6 | 0.00 | 0.08 | 0.08 | 66 | 1015.3 |
| 20260510153804 | 55 | 9 | 5.2 | 6.1 | 0.00 | 0.08 | 0.08 | 65 | 1015.2 |
| 20260510153300 | 54 | 323 | 2.6 | 2.6 | 0.00 | 0.08 | 0.08 | 66 | 1015.1 |
| 20260510152757 | 54 | 20 | 1.7 | 1.7 | 0.00 | 0.08 | 0.08 | 67 | 1015.1 |
| 20260510152254 | 54 | 248 | 3.5 | 4.3 | 0.00 | 0.08 | 0.08 | 67 | 1015.1 |
| 20260510151750 | 54 | 171 | 0.9 | 0.9 | 0.00 | 0.08 | 0.08 | 69 | 1014.8 |
| 20260510151249 | 53 | 150 | 0.0 | 0.0 | 0.00 | 0.08 | 0.08 | 70 | 1015.1 |
| 20260510150744 | 53 | 100 | 0.9 | 0.9 | 0.00 | 0.08 | 0.08 | 69 | 1014.9 |
| 20260510150240 | 53 | 252 | 2.6 | 2.6 | 0.00 | 0.08 | 0.08 | 69 | 1014.6 |
| 20260510145736 | 53 | 13 | 1.7 | 4.3 | 0.00 | 0.08 | 0.08 | 71 | 1014.7 |
| 20260510145233 | 53 | 118 | 1.7 | 2.6 | 0.00 | 0.08 | 0.08 | 72 | 1014.7 |
| 20260510144723 | 53 | 152 | 0.9 | 1.7 | 0.00 | 0.08 | 0.08 | 74 | 1014.4 |
| 20260510144220 | 53 | 192 | 0.9 | 1.7 | 0.00 | 0.08 | 0.08 | 75 | 1014.6 |
| 20260510143715 | 52 | 116 | 0.9 | 0.9 | 0.00 | 0.08 | 0.08 | 75 | 1014.7 |
| 20260510143211 | 53 | 315 | 1.7 | 1.7 | 0.00 | 0.08 | 0.08 | 76 | 1014.6 |
| 20260510142708 | 52 | 296 | 3.5 | 4.3 | 0.00 | 0.08 | 0.08 | 75 | 1014.5 |
| 20260510142205 | 52 | 214 | 1.7 | 1.7 | 0.00 | 0.08 | 0.08 | 76 | 1014.5 |
| 20260510141702 | 52 | 78 | 1.7 | 1.7 | 0.00 | 0.08 | 0.08 | 77 | 1014.3 |
| 20260510141200 | 52 | 309 | 3.5 | 4.3 | 0.00 | 0.08 | 0.08 | 79 | 1014.5 |
| 20260510140656 | 51 | 175 | 0.9 | 0.9 | 0.00 | 0.08 | 0.08 | 80 | 1014.2 |
| 20260510140156 | 51 | 155 | 0.9 | 0.9 | 0.00 | 0.08 | 0.08 | 81 | 1014.4 |
| 20260510135651 | 50 | 67 | 0.9 | 1.7 | 0.00 | 0.08 | 0.08 | 83 | 1014.3 |
| 20260510135147 | 50 | 177 | 0.9 | 1.7 | 0.00 | 0.08 | 0.08 | 86 | 1014.2 |
| 20260510134644 | 50 | 191 | 2.6 | 2.6 | 0.00 | 0.08 | 0.08 | 88 | 1014.0 |
| 20260510134142 | 49 | 262 | 2.6 | 2.6 | 0.00 | 0.08 | 0.08 | 90 | 1013.7 |
| 20260510133638 | 49 | 284 | 2.6 | 4.3 | 0.00 | 0.08 | 0.08 | 92 | 1013.8 |
| 20260510133133 | 48 | 349 | 2.6 | 2.6 | 0.00 | 0.08 | 0.08 | 94 | 1013.8 |
| 20260510132630 | 48 | 206 | 2.6 | 4.3 | 0.00 | 0.08 | 0.08 | 95 | 1014.0 |
| 20260510132127 | 48 | 289 | 3.5 | 5.2 | 0.00 | 0.08 | 0.08 | 95 | 1013.5 |
| 20260510131624 | 48 | 43 | 1.7 | 1.7 | 0.00 | 0.08 | 0.08 | 95 | 1013.8 |
| 20260510131122 | 48 | 328 | 0.9 | 1.7 | 0.00 | 0.08 | 0.08 | 95 | 1013.9 |
| 20260510130618 | 47 | 216 | 1.7 | 2.6 | 0.00 | 0.08 | 0.08 | 95 | 1013.7 |
| 20260510130116 | 47 | 5 | 2.6 | 4.3 | 0.00 | 0.08 | 0.08 | 95 | 1013.7 |
| 20260510125612 | 47 | 133 | 0.9 | 1.7 | 0.00 | 0.08 | 0.08 | 95 | 1013.8 |
| 20260510125108 | 47 | 185 | 0.9 | 0.9 | 0.00 | 0.08 | 0.08 | 95 | 1013.9 |
| 20260510124605 | 47 | 323 | 2.6 | 4.3 | 0.07 | 0.08 | 0.08 | 95 | 1013.8 |
| 20260510124102 | 50 | 275 | 4.3 | 7.0 | 0.07 | 0.08 | 0.08 | 95 | 1013.5 |
| 20260510123556 | 50 | 214 | 0.9 | 0.9 | 0.00 | 0.07 | 0.07 | 95 | 1013.4 |
| 20260510123053 | 50 | 177 | 0.9 | 0.9 | 0.00 | 0.07 | 0.07 | 95 | 1013.0 |
| 20260510122549 | 50 | 180 | 0.0 | 0.9 | 0.00 | 0.07 | 0.07 | 95 | 1013.0 |
| 20260510122046 | 50 | 176 | 0.0 | 0.0 | 0.00 | 0.07 | 0.07 | 95 | 1012.7 |
| 20260510121543 | 50 | 174 | 0.0 | 0.0 | 0.00 | 0.07 | 0.07 | 95 | 1012.8 |
| 20260510121040 | 50 | 145 | 0.0 | 0.9 | 0.00 | 0.07 | 0.07 | 95 | 1012.8 |
| 20260510120538 | 50 | 172 | 0.0 | 0.9 | 0.00 | 0.07 | 0.07 | 95 | 1012.8 |
| 20260510120033 | 50 | 176 | 0.0 | 0.0 | 0.00 | 0.07 | 0.07 | 95 | 1012.8 |
| 20260510115530 | 50 | 175 | 0.0 | 0.0 | 0.00 | 0.07 | 0.07 | 95 | 1012.5 |
| 20260510115027 | 49 | 214 | 0.0 | 0.0 | 0.00 | 0.07 | 0.07 | 95 | 1012.5 |
| 20260510114522 | 49 | 138 | 0.0 | 0.0 | 0.00 | 0.07 | 0.07 | 95 | 1012.5 |
| 20260510114019 | 48 | 124 | 0.0 | 0.0 | 0.00 | 0.07 | 0.07 | 95 | 1012.1 |
| 20260510113514 | 48 | 178 | 0.0 | 0.0 | 0.00 | 0.07 | 0.07 | 95 | 1012.2 |
| 20260510113012 | 48 | 179 | 0.0 | 0.0 | 0.00 | 0.07 | 0.07 | 95 | 1012.2 |
| 20260510112509 | 48 | 179 | 0.0 | 0.0 | 0.00 | 0.07 | 0.07 | 95 | 1012.2 |
| 20260510112005 | 48 | 179 | 0.0 | 0.0 | 0.00 | 0.07 | 0.07 | 95 | 1012.0 |
| 20260510111501 | 48 | 177 | 0.0 | 0.0 | 0.00 | 0.07 | 0.07 | 95 | 1011.9 |
| 20260510110957 | 48 | 177 | 0.0 | 0.0 | 0.00 | 0.07 | 0.07 | 95 | 1011.8 |
| 20260510110454 | 48 | 178 | 0.9 | 0.9 | 0.00 | 0.07 | 0.07 | 95 | 1011.8 |
| 20260510105950 | 48 | 173 | 0.0 | 0.0 | 0.00 | 0.07 | 0.07 | 95 | 1011.8 |
| 20260510105445 | 48 | 174 | 0.0 | 0.0 | 0.00 | 0.07 | 0.07 | 95 | 1011.6 |
| 20260510104940 | 48 | 174 | 0.0 | 0.0 | 0.00 | 0.07 | 0.07 | 95 | 1011.5 |
| 20260510104437 | 47 | 173 | 0.0 | 0.0 | 0.00 | 0.07 | 0.07 | 95 | 1011.5 |
| 20260510103934 | 47 | 165 | 0.0 | 0.0 | 0.00 | 0.07 | 0.07 | 95 | 1011.2 |
| 20260510103432 | 47 | 166 | 0.9 | 0.9 | 0.00 | 0.07 | 0.07 | 95 | 1011.1 |
| 20260510102926 | 48 | 154 | 0.0 | 0.9 | 0.00 | 0.07 | 0.07 | 95 | 1011.0 |
| 20260510102422 | 48 | 153 | 0.0 | 0.0 | 0.00 | 0.07 | 0.07 | 95 | 1011.0 |
| 20260510101920 | 48 | 133 | 1.7 | 1.7 | 0.00 | 0.07 | 0.07 | 95 | 1011.2 |
| 20260510101417 | 48 | 154 | 0.9 | 0.9 | 0.00 | 0.07 | 0.07 | 95 | 1011.0 |
| 20260510100915 | 47 | 133 | 0.0 | 0.0 | 0.00 | 0.07 | 0.07 | 95 | 1010.7 |
| 20260510100412 | 47 | 127 | 1.7 | 1.7 | 0.00 | 0.07 | 0.07 | 95 | 1010.7 |
| 20260510095907 | 47 | 110 | 0.0 | 0.0 | 0.00 | 0.07 | 0.07 | 95 | 1010.8 |
| 20260510095402 | 47 | 135 | 0.0 | 0.0 | 0.00 | 0.07 | 0.07 | 95 | 1010.8 |
| 20260510094856 | 47 | 139 | 0.9 | 0.9 | 0.00 | 0.07 | 0.07 | 95 | 1010.8 |
| 20260510094352 | 47 | 141 | 0.0 | 0.0 | 0.00 | 0.07 | 0.07 | 95 | 1010.8 |
| 20260510093848 | 47 | 140 | 0.0 | 0.0 | 0.00 | 0.07 | 0.07 | 95 | 1010.5 |
| 20260510093344 | 46 | 148 | 0.0 | 0.0 | 0.00 | 0.07 | 0.07 | 95 | 1010.6 |
| 20260510092840 | 46 | 148 | 0.0 | 0.0 | 0.00 | 0.07 | 0.07 | 95 | 1011.0 |
| 20260510092337 | 46 | 148 | 0.0 | 0.0 | 0.00 | 0.07 | 0.07 | 95 | 1010.7 |
| 20260510091832 | 46 | 169 | 0.0 | 0.0 | 0.00 | 0.07 | 0.07 | 95 | 1010.5 |
| 20260510091330 | 46 | 170 | 0.0 | 0.0 | 0.00 | 0.07 | 0.07 | 95 | 1010.5 |
| 20260510090826 | 46 | 166 | 0.0 | 0.0 | 0.00 | 0.07 | 0.07 | 95 | 1010.6 |
| 20260510090323 | 46 | 165 | 0.0 | 0.0 | 0.00 | 0.07 | 0.07 | 95 | 1010.4 |
| 20260510085818 | 46 | 150 | 0.0 | 0.0 | 0.00 | 0.07 | 0.07 | 95 | 1010.3 |
| 20260510085313 | 46 | 150 | 0.0 | 0.0 | 0.00 | 0.07 | 0.07 | 95 | 1010.3 |
| 20260510084809 | 46 | 150 | 0.0 | 0.0 | 0.00 | 0.07 | 0.07 | 95 | 1010.4 |
| 20260510084306 | 46 | 149 | 0.0 | 0.0 | 0.00 | 0.07 | 0.07 | 95 | 1010.2 |
| 20260510083803 | 46 | 150 | 0.0 | 0.0 | 0.00 | 0.07 | 0.07 | 95 | 1010.2 |
| 20260510083300 | 46 | 150 | 0.0 | 0.0 | 0.00 | 0.07 | 0.07 | 95 | 1010.4 |
| 20260510082755 | 46 | 150 | 0.0 | 0.0 | 0.00 | 0.07 | 0.07 | 95 | 1010.2 |
| 20260510082252 | 46 | 149 | 0.0 | 0.0 | 0.00 | 0.07 | 0.07 | 95 | 1010.4 |
| 20260510081750 | 46 | 149 | 0.0 | 0.9 | 0.00 | 0.07 | 0.07 | 94 | 1010.5 |
| 20260510081247 | 46 | 150 | 0.0 | 0.0 | 0.00 | 0.07 | 0.07 | 94 | 1010.0 |
| 20260510080743 | 46 | 150 | 0.0 | 0.9 | 0.00 | 0.07 | 0.07 | 94 | 1010.0 |
| 20260510080238 | 46 | 148 | 0.0 | 0.0 | 0.00 | 0.07 | 0.07 | 94 | 1010.1 |
| 20260510075735 | 46 | 151 | 0.0 | 0.0 | 0.00 | 0.07 | 0.07 | 94 | 1009.8 |
| 20260510075233 | 47 | 150 | 0.0 | 0.0 | 0.00 | 0.07 | 0.07 | 94 | 1010.0 |
| 20260510074730 | 46 | 134 | 0.9 | 0.9 | 0.00 | 0.07 | 0.07 | 94 | 1010.0 |
| 20260510074226 | 46 | 168 | 0.0 | 0.0 | 0.00 | 0.07 | 0.07 | 94 | 1010.0 |
| 20260510073722 | 47 | 133 | 0.0 | 0.0 | 0.00 | 0.07 | 0.07 | 94 | 1010.1 |
| 20260510073218 | 46 | 156 | 0.0 | 0.0 | 0.00 | 0.07 | 0.07 | 94 | 1009.6 |
| 20260510072714 | 46 | 156 | 0.0 | 0.0 | 0.00 | 0.07 | 0.07 | 94 | 1009.8 |
| 20260510072211 | 47 | 157 | 0.0 | 0.0 | 0.00 | 0.07 | 0.07 | 94 | 1009.8 |
| 20260510071708 | 47 | 145 | 0.0 | 0.0 | 0.00 | 0.07 | 0.07 | 94 | 1009.7 |
| 20260510071204 | 48 | 133 | 0.9 | 0.9 | 0.00 | 0.07 | 0.07 | 94 | 1009.6 |
| 20260510070702 | 48 | 160 | 0.0 | 0.0 | 0.00 | 0.07 | 0.07 | 94 | 1009.7 |
| 20260510070200 | 49 | 143 | 0.9 | 0.9 | 0.00 | 0.07 | 0.07 | 94 | 1009.4 |
| 20260510065654 | 49 | 139 | 0.9 | 0.9 | 0.00 | 0.07 | 0.07 | 94 | 1009.7 |
| 20260510065151 | 49 | 130 | 0.9 | 1.7 | 0.00 | 0.07 | 0.07 | 94 | 1009.4 |
| 20260510064648 | 49 | 131 | 0.0 | 0.0 | 0.00 | 0.07 | 0.07 | 94 | 1009.3 |
| 20260510064145 | 49 | 134 | 1.7 | 1.7 | 0.00 | 0.07 | 0.07 | 94 | 1009.4 |
| 20260510063642 | 49 | 138 | 0.9 | 0.9 | 0.00 | 0.07 | 0.07 | 93 | 1009.5 |
| 20260510063138 | 49 | 130 | 0.9 | 1.7 | 0.00 | 0.07 | 0.07 | 93 | 1009.4 |
| 20260510062634 | 49 | 128 | 0.0 | 0.9 | 0.00 | 0.07 | 0.07 | 93 | 1009.7 |
| 20260510062131 | 49 | 127 | 0.9 | 1.7 | 0.00 | 0.07 | 0.07 | 93 | 1009.7 |
| 20260510061626 | 49 | 161 | 0.0 | 0.0 | 0.00 | 0.07 | 0.07 | 93 | 1009.8 |
| 20260510061124 | 50 | 179 | 0.9 | 0.9 | 0.00 | 0.07 | 0.07 | 93 | 1009.8 |
| 20260510060620 | 50 | 130 | 0.9 | 0.9 | 0.00 | 0.07 | 0.07 | 93 | 1009.8 |
| 20260510060116 | 50 | 97 | 0.0 | 0.0 | 0.00 | 0.07 | 0.07 | 93 | 1009.5 |
| 20260510055612 | 50 | 90 | 0.0 | 0.9 | 0.00 | 0.07 | 0.07 | 93 | 1010.0 |
| 20260510055110 | 50 | 101 | 0.0 | 0.9 | 0.00 | 0.07 | 0.07 | 93 | 1010.0 |
| 20260510054606 | 50 | 141 | 0.9 | 1.7 | 0.00 | 0.07 | 0.07 | 93 | 1010.1 |
| 20260510054101 | 50 | 141 | 0.9 | 0.9 | 0.00 | 0.07 | 0.07 | 93 | 1010.1 |
| 20260510053601 | 50 | 132 | 2.6 | 2.6 | 0.00 | 0.07 | 0.07 | 93 | 1010.2 |
| 20260510053058 | 50 | 121 | 4.3 | 5.2 | 0.00 | 0.07 | 0.07 | 93 | 1009.7 |
| 20260510052554 | 50 | 141 | 2.6 | 2.6 | 0.00 | 0.07 | 0.07 | 93 | 1010.0 |
| 20260510052050 | 50 | 101 | 0.0 | 0.9 | 0.00 | 0.07 | 0.07 | 93 | 1010.0 |
| 20260510051546 | 50 | 77 | 0.0 | 0.9 | 0.00 | 0.07 | 0.07 | 93 | 1010.3 |
| 20260510051043 | 50 | 121 | 3.5 | 5.2 | 0.00 | 0.07 | 0.07 | 93 | 1010.1 |
| 20260510050540 | 50 | 109 | 3.5 | 4.3 | 0.00 | 0.07 | 0.07 | 93 | 1010.5 |
| 20260510050037 | 50 | 100 | 0.0 | 0.9 | 0.00 | 0.07 | 0.07 | 92 | 1010.6 |
| 20260510045534 | 50 | 128 | 0.9 | 0.9 | 0.00 | 0.07 | 0.07 | 92 | 1011.2 |
| 20260510045030 | 50 | 176 | 1.7 | 1.7 | 0.05 | 0.07 | 0.07 | 92 | 1010.7 |
| 20260510044527 | 51 | 15 | 2.6 | 2.6 | 0.12 | 0.07 | 0.07 | 92 | 1010.7 |
| 20260510044025 | 51 | 130 | 1.7 | 1.7 | 0.12 | 0.06 | 0.06 | 91 | 1010.5 |
| 20260510043520 | 51 | 151 | 0.0 | 0.9 | 0.12 | 0.05 | 0.05 | 91 | 1010.9 |
| 20260510043015 | 51 | 178 | 0.9 | 0.9 | 0.14 | 0.04 | 0.04 | 91 | 1011.1 |
| 20260510042510 | 51 | 157 | 0.0 | 0.0 | 0.12 | 0.03 | 0.03 | 91 | 1011.0 |
| 20260510042005 | 51 | 206 | 1.7 | 1.7 | 0.05 | 0.02 | 0.02 | 90 | 1011.0 |
| 20260510041503 | 51 | 282 | 1.7 | 2.6 | 0.00 | 0.01 | 0.01 | 91 | 1011.2 |
| 20260510041000 | 52 | 278 | 2.6 | 2.6 | 0.07 | 0.01 | 0.01 | 91 | 1011.0 |
| 20260510040456 | 52 | 281 | 1.7 | 1.7 | 0.07 | 0.01 | 0.01 | 91 | 1011.1 |
| 20260510035952 | 52 | 254 | 1.7 | 2.6 | 0.00 | 0.29 | 0.29 | 91 | 1011.0 |
| 20260510035449 | 52 | 281 | 2.6 | 2.6 | 0.00 | 0.29 | 0.29 | 91 | 1010.6 |
| 20260510034948 | 52 | 211 | 0.9 | 1.7 | 0.00 | 0.29 | 0.29 | 91 | 1010.7 |
| 20260510034447 | 52 | 200 | 1.7 | 1.7 | 0.00 | 0.29 | 0.29 | 91 | 1010.9 |
| 20260510033943 | 51 | 268 | 2.6 | 2.6 | 0.00 | 0.29 | 0.29 | 91 | 1010.7 |
| 20260510033439 | 51 | 182 | 0.9 | 0.9 | 0.00 | 0.29 | 0.29 | 91 | 1010.1 |
| 20260510032937 | 51 | 142 | 0.9 | 0.9 | 0.00 | 0.29 | 0.29 | 91 | 1009.6 |
| 20260510032433 | 51 | 135 | 2.6 | 2.6 | 0.00 | 0.29 | 0.29 | 91 | 1009.1 |
| 20260510031928 | 51 | 120 | 2.6 | 2.6 | 0.00 | 0.29 | 0.29 | 91 | 1009.4 |
| 20260510031424 | 51 | 130 | 2.6 | 4.3 | 0.00 | 0.29 | 0.29 | 91 | 1009.5 |
| 20260510030919 | 51 | 130 | 2.6 | 2.6 | 0.00 | 0.29 | 0.29 | 91 | 1009.6 |
| 20260510030415 | 51 | 125 | 1.7 | 1.7 | 0.00 | 0.29 | 0.29 | 91 | 1009.7 |
| 20260510025913 | 51 | 124 | 2.6 | 2.6 | 0.00 | 0.29 | 0.29 | 91 | 1009.6 |
| 20260510025410 | 51 | 126 | 1.7 | 1.7 | 0.00 | 0.29 | 0.29 | 91 | 1009.6 |
| 20260510024908 | 52 | 142 | 1.7 | 2.6 | 0.00 | 0.29 | 0.29 | 91 | 1009.5 |
| 20260510024404 | 51 | 128 | 1.7 | 1.7 | 0.00 | 0.29 | 0.29 | 91 | 1009.4 |
| 20260510023900 | 51 | 133 | 0.0 | 0.0 | 0.00 | 0.29 | 0.29 | 91 | 1009.5 |
| 20260510023356 | 51 | 137 | 0.9 | 0.9 | 0.00 | 0.29 | 0.29 | 91 | 1009.4 |
| 20260510022848 | 52 | 140 | 0.0 | 0.0 | 0.00 | 0.29 | 0.29 | 91 | 1009.2 |
| 20260510022347 | 51 | 121 | 2.6 | 2.6 | 0.00 | 0.29 | 0.29 | 91 | 1009.2 |
| 20260510021846 | 52 | 158 | 1.7 | 1.7 | 0.00 | 0.29 | 0.29 | 91 | 1008.9 |
| 20260510021345 | 52 | 117 | 2.6 | 2.6 | 0.00 | 0.29 | 0.29 | 91 | 1008.9 |
| 20260510020841 | 52 | 113 | 3.5 | 5.2 | 0.00 | 0.29 | 0.29 | 91 | 1008.9 |
| 20260510020341 | 52 | 119 | 1.7 | 2.6 | 0.00 | 0.29 | 0.29 | 91 | 1008.9 |
| 20260510015837 | 52 | 152 | 2.6 | 2.6 | 0.00 | 0.29 | 0.29 | 91 | 1009.0 |
| 20260510015333 | 52 | 124 | 2.6 | 2.6 | 0.00 | 0.29 | 0.29 | 90 | 1009.1 |
| 20260510014828 | 52 | 133 | 1.7 | 1.7 | 0.00 | 0.29 | 0.29 | 91 | 1008.9 |
| 20260510014326 | 52 | 140 | 0.9 | 0.9 | 0.00 | 0.29 | 0.29 | 90 | 1008.8 |
| 20260510013821 | 52 | 113 | 5.2 | 5.2 | 0.00 | 0.29 | 0.29 | 91 | 1008.6 |
| 20260510013317 | 52 | 137 | 2.6 | 2.6 | 0.00 | 0.29 | 0.29 | 91 | 1008.7 |
| 20260510012812 | 52 | 114 | 2.6 | 4.3 | 0.00 | 0.29 | 0.29 | 91 | 1008.7 |
| 20260510012312 | 52 | 132 | 2.6 | 4.3 | 0.00 | 0.29 | 0.29 | 91 | 1008.9 |
| 20260510011807 | 52 | 128 | 1.7 | 1.7 | 0.00 | 0.29 | 0.29 | 91 | 1008.9 |
| 20260510011303 | 52 | 130 | 1.7 | 1.7 | 0.00 | 0.29 | 0.29 | 91 | 1008.7 |
| 20260510010800 | 52 | 135 | 1.7 | 1.7 | 0.00 | 0.29 | 0.29 | 90 | 1008.4 |
| 20260510010256 | 53 | 139 | 2.6 | 4.3 | 0.00 | 0.29 | 0.29 | 90 | 1008.3 |
| 20260510005753 | 53 | 117 | 3.5 | 4.3 | 0.00 | 0.29 | 0.29 | 90 | 1008.4 |
| 20260510005249 | 53 | 111 | 4.3 | 5.2 | 0.00 | 0.29 | 0.29 | 90 | 1008.2 |
| 20260510004748 | 53 | 112 | 4.3 | 5.2 | 0.00 | 0.29 | 0.29 | 90 | 1008.5 |
| 20260510004245 | 53 | 128 | 2.6 | 2.6 | 0.00 | 0.29 | 0.29 | 90 | 1008.2 |
| 20260510003742 | 53 | 133 | 0.9 | 1.7 | 0.00 | 0.29 | 0.29 | 90 | 1008.1 |
| 20260510003239 | 53 | 128 | 2.6 | 4.3 | 0.00 | 0.29 | 0.29 | 89 | 1008.1 |
| 20260510002737 | 53 | 118 | 3.5 | 4.3 | 0.00 | 0.29 | 0.29 | 89 | 1008.0 |
| 20260510002235 | 53 | 121 | 2.6 | 2.6 | 0.00 | 0.29 | 0.29 | 89 | 1008.3 |
| 20260510001731 | 53 | 117 | 2.6 | 2.6 | 0.00 | 0.29 | 0.29 | 89 | 1008.4 |
| 20260510001230 | 53 | 125 | 1.7 | 2.6 | 0.00 | 0.29 | 0.29 | 88 | 1008.1 |
| 20260510000726 | 54 | 128 | 2.6 | 2.6 | 0.00 | 0.29 | 0.29 | 88 | 1007.9 |
| 20260510000226 | 54 | 130 | 2.6 | 2.6 | 0.00 | 0.29 | 0.29 | 88 | 1007.9 |
| 20260509235720 | 54 | 134 | 0.9 | 1.7 | 0.00 | 0.29 | 0.29 | 87 | 1007.9 |
| 20260509235216 | 54 | 140 | 0.9 | 0.9 | 0.00 | 0.29 | 0.29 | 87 | 1007.9 |
| 20260509234712 | 55 | 140 | 2.6 | 2.6 | 0.00 | 0.29 | 0.29 | 87 | 1007.8 |
| 20260509234209 | 55 | 143 | 0.9 | 1.7 | 0.00 | 0.29 | 0.29 | 86 | 1007.8 |
| 20260509233708 | 55 | 145 | 0.9 | 1.7 | 0.00 | 0.29 | 0.29 | 86 | 1007.7 |
| 20260509233205 | 55 | 160 | 0.0 | 0.0 | 0.00 | 0.29 | 0.29 | 85 | 1007.7 |
| 20260509232701 | 55 | 126 | 0.9 | 1.7 | 0.00 | 0.29 | 0.29 | 85 | 1007.7 |
| 20260509232158 | 55 | 158 | 0.0 | 0.9 | 0.00 | 0.29 | 0.29 | 85 | 1007.8 |